| time (UTC) | temp C | wind direction | speed KPH | gust KPH | rain 1hr cm | rain 24hr cm | rain mn cm | humidity % | barometer mb |
| 20260507231647 | 13 | 315 | 3.2 | 8.0 | 0.00 | 0.00 | 0.00 | 42 | 1012.1 |
| 20260507230648 | 13 | 315 | 4.8 | 8.0 | 0.00 | 0.00 | 0.00 | 41 | 1012.0 |
| 20260507225646 | 13 | 225 | 1.6 | 11.3 | 0.00 | 0.00 | 0.00 | 41 | 1011.9 |
| 20260507224646 | 14 | 45 | 4.8 | 11.3 | 0.00 | 0.00 | 0.00 | 40 | 1011.8 |
| 20260507223645 | 14 | 22 | 3.2 | 4.8 | 0.00 | 0.00 | 0.00 | 40 | 1011.7 |
| 20260507222759 | 14 | 270 | 3.2 | 8.0 | 0.00 | 0.00 | 0.00 | 39 | 1011.6 |
| 20260507221643 | 15 | 292 | 1.6 | 9.7 | 0.00 | 0.00 | 0.00 | 41 | 1011.5 |
| 20260507220643 | 15 | 337 | 0.0 | 8.0 | 0.00 | 0.00 | 0.00 | 40 | 1011.5 |
| 20260507215642 | 16 | 292 | 1.6 | 6.4 | 0.00 | 0.00 | 0.00 | 37 | 1011.3 |
| 20260507214642 | 16 | 337 | 3.2 | 6.4 | 0.00 | 0.00 | 0.00 | 36 | 1011.2 |
| 20260507213641 | 16 | 315 | 3.2 | 8.0 | 0.00 | 0.00 | 0.00 | 35 | 1011.1 |
| 20260507212642 | 17 | 0 | 6.4 | 11.3 | 0.00 | 0.00 | 0.00 | 34 | 1011.0 |
| 20260507211640 | 17 | 112 | 1.6 | 9.7 | 0.00 | 0.00 | 0.00 | 36 | 1011.2 |
| 20260507210640 | 18 | 292 | 3.2 | 8.0 | 0.00 | 0.00 | 0.00 | 35 | 1011.1 |
| 20260507205640 | 17 | 337 | 4.8 | 8.0 | 0.00 | 0.00 | 0.00 | 36 | 1010.9 |
| 20260507204639 | 17 | 315 | 4.8 | 6.4 | 0.00 | 0.00 | 0.00 | 34 | 1011.0 |
| 20260507203638 | 19 | 22 | 1.6 | 6.4 | 0.00 | 0.00 | 0.00 | 33 | 1011.0 |
| 20260507202637 | 17 | 225 | 1.6 | 6.4 | 0.00 | 0.00 | 0.00 | 38 | 1010.9 |
| 20260507201637 | 17 | 202 | 1.6 | 8.0 | 0.00 | 0.00 | 0.00 | 38 | 1010.9 |
| 20260507200635 | 18 | 337 | 8.0 | 11.3 | 0.00 | 0.00 | 0.00 | 33 | 1011.0 |
| 20260507195750 | 17 | 247 | 1.6 | 8.0 | 0.00 | 0.00 | 0.00 | 37 | 1011.3 |
| 20260507194634 | 17 | 180 | 1.6 | 8.0 | 0.00 | 0.00 | 0.00 | 39 | 1011.3 |
| 20260507193634 | 18 | 67 | 6.4 | 11.3 | 0.00 | 0.00 | 0.00 | 35 | 1011.3 |
| 20260507192633 | 18 | 225 | 1.6 | 6.4 | 0.00 | 0.00 | 0.00 | 38 | 1011.3 |
| 20260507191632 | 17 | 315 | 3.2 | 9.7 | 0.00 | 0.00 | 0.00 | 38 | 1011.4 |
| 20260507190747 | 17 | 315 | 4.8 | 8.0 | 0.00 | 0.00 | 0.00 | 38 | 1011.5 |
| 20260507185632 | 17 | 292 | 4.8 | 8.0 | 0.00 | 0.00 | 0.00 | 38 | 1011.6 |
| 20260507184632 | 17 | 247 | 1.6 | 8.0 | 0.00 | 0.00 | 0.00 | 38 | 1011.7 |
| 20260507183631 | 16 | 202 | 3.2 | 4.8 | 0.00 | 0.00 | 0.00 | 40 | 1011.7 |
| 20260507182631 | 16 | 247 | 0.0 | 8.0 | 0.00 | 0.00 | 0.00 | 41 | 1011.9 |
| 20260507181745 | 16 | 22 | 0.0 | 4.8 | 0.00 | 0.00 | 0.00 | 42 | 1011.9 |
| 20260507180630 | 16 | 202 | 1.6 | 4.8 | 0.00 | 0.00 | 0.00 | 43 | 1011.9 |
| 20260507175630 | 16 | 0 | 3.2 | 6.4 | 0.00 | 0.00 | 0.00 | 43 | 1012.0 |
| 20260507174630 | 16 | 90 | 0.0 | 8.0 | 0.00 | 0.00 | 0.00 | 43 | 1012.2 |
| 20260507173629 | 16 | 315 | 3.2 | 6.4 | 0.00 | 0.00 | 0.00 | 41 | 1012.4 |
| 20260507172629 | 15 | 292 | 1.6 | 6.4 | 0.00 | 0.00 | 0.00 | 45 | 1012.5 |
| 20260507171628 | 16 | 180 | 1.6 | 9.7 | 0.00 | 0.00 | 0.00 | 42 | 1012.5 |
| 20260507170627 | 17 | 315 | 1.6 | 6.4 | 0.00 | 0.00 | 0.00 | 40 | 1012.7 |
| 20260507165627 | 17 | 22 | 1.6 | 6.4 | 0.00 | 0.00 | 0.00 | 41 | 1012.8 |
| 20260507164627 | 18 | 202 | 1.6 | 6.4 | 0.00 | 0.00 | 0.00 | 40 | 1012.8 |
| 20260507163628 | 17 | 315 | 4.8 | 8.0 | 0.00 | 0.00 | 0.00 | 39 | 1012.9 |
| 20260507162626 | 18 | 270 | 3.2 | 8.0 | 0.00 | 0.00 | 0.00 | 39 | 1013.1 |
| 20260507160625 | 17 | 270 | 3.2 | 4.8 | 0.00 | 0.00 | 0.00 | 40 | 1013.2 |
| 20260507155739 | 17 | 247 | 4.8 | 8.0 | 0.00 | 0.00 | 0.00 | 40 | 1013.3 |
| 20260507154623 | 18 | 22 | 3.2 | 6.4 | 0.00 | 0.00 | 0.00 | 38 | 1013.5 |
| 20260507153737 | 16 | 270 | 3.2 | 4.8 | 0.00 | 0.00 | 0.00 | 44 | 1013.5 |
| 20260507152738 | 16 | 292 | 3.2 | 6.4 | 0.00 | 0.00 | 0.00 | 43 | 1013.6 |
| 20260507151622 | 16 | 180 | 3.2 | 4.8 | 0.00 | 0.00 | 0.00 | 42 | 1013.7 |
| 20260507150622 | 16 | 337 | 1.6 | 6.4 | 0.00 | 0.00 | 0.00 | 44 | 1013.8 |
| 20260507145622 | 15 | 315 | 3.2 | 4.8 | 0.00 | 0.00 | 0.00 | 45 | 1014.0 |
| 20260507144621 | 14 | 157 | 3.2 | 3.2 | 0.00 | 0.00 | 0.00 | 50 | 1014.2 |
| 20260507143621 | 14 | 247 | 3.2 | 6.4 | 0.00 | 0.00 | 0.00 | 50 | 1014.3 |
| 20260507142621 | 14 | 247 | 1.6 | 4.8 | 0.00 | 0.03 | 0.00 | 52 | 1014.4 |
| 20260507141619 | 13 | 180 | 3.2 | 6.4 | 0.00 | 0.03 | 0.00 | 53 | 1014.5 |
| 20260507140619 | 13 | 337 | 3.2 | 3.2 | 0.00 | 0.03 | 0.00 | 52 | 1014.6 |
| 20260507135618 | 12 | 337 | 1.6 | 4.8 | 0.00 | 0.03 | 0.00 | 60 | 1014.7 |
| 20260507134617 | 12 | 270 | 1.6 | 4.8 | 0.00 | 0.03 | 0.00 | 60 | 1014.8 |
| 20260507133617 | 10 | 135 | 1.6 | 6.4 | 0.00 | 0.03 | 0.00 | 70 | 1014.9 |
| 20260507132732 | 10 | 270 | 0.0 | 3.2 | 0.00 | 0.05 | 0.00 | 73 | 1015.0 |
| 20260507131618 | 8 | 225 | 0.0 | 3.2 | 0.00 | 0.05 | 0.00 | 81 | 1015.1 |
| 20260507130616 | 8 | 225 | 1.6 | 3.2 | 0.00 | 0.05 | 0.00 | 82 | 1015.0 |
| 20260507125730 | 7 | 247 | 0.0 | 3.2 | 0.00 | 0.05 | 0.00 | 90 | 1015.1 |
| 20260507124616 | 7 | 202 | 0.0 | 0.0 | 0.00 | 0.05 | 0.00 | 97 | 1015.1 |
| 20260507123614 | 6 | 225 | 0.0 | 3.2 | 0.00 | 0.05 | 0.00 | 99 | 1015.1 |
| 20260507122613 | 6 | 225 | 0.0 | 1.6 | 0.00 | 0.05 | 0.00 | 99 | 1015.2 |
| 20260507121613 | 5 | 225 | 0.0 | 0.0 | 0.00 | 0.08 | 0.00 | 99 | 1015.2 |
| 20260507120612 | 5 | 202 | 0.0 | 0.0 | 0.00 | 0.10 | 0.00 | 99 | 1015.1 |
| 20260507115727 | 3 | 225 | 0.0 | 0.0 | 0.00 | 0.15 | 0.00 | 99 | 1015.2 |
| 20260507114612 | 3 | 202 | 0.0 | 0.0 | 0.00 | 0.20 | 0.00 | 99 | 1015.1 |
| 20260507113612 | 3 | 202 | 0.0 | 0.0 | 0.00 | 0.23 | 0.00 | 99 | 1015.1 |
| 20260507112610 | 2 | 202 | 0.0 | 0.0 | 0.00 | 0.23 | 0.00 | 99 | 1014.9 |
| 20260507111725 | 2 | 225 | 0.0 | 0.0 | 0.00 | 0.23 | 0.00 | 99 | 1014.8 |
| 20260507110610 | 2 | 202 | 0.0 | 0.0 | 0.00 | 0.23 | 0.00 | 99 | 1014.8 |
| 20260507105609 | 2 | 202 | 0.0 | 0.0 | 0.00 | 0.23 | 0.00 | 99 | 1014.8 |
| 20260507104609 | 1 | 202 | 0.0 | 0.0 | 0.00 | 0.28 | 0.00 | 99 | 1014.7 |
| 20260507103724 | 1 | 202 | 0.0 | 0.0 | 0.00 | 0.33 | 0.00 | 99 | 1014.5 |
| 20260507102723 | 1 | 202 | 0.0 | 0.0 | 0.00 | 0.41 | 0.00 | 99 | 1014.5 |
| 20260507101722 | 1 | 225 | 0.0 | 0.0 | 0.00 | 0.46 | 0.00 | 99 | 1014.5 |
| 20260507100607 | 1 | 225 | 0.0 | 0.0 | 0.00 | 0.51 | 0.00 | 99 | 1014.4 |
| 20260507095607 | 2 | 247 | 0.0 | 0.0 | 0.00 | 0.61 | 0.00 | 99 | 1014.4 |
| 20260507094607 | 2 | 202 | 0.0 | 0.0 | 0.00 | 0.69 | 0.00 | 99 | 1014.4 |
| 20260507093606 | 2 | 202 | 0.0 | 0.0 | 0.00 | 0.71 | 0.00 | 99 | 1014.3 |
| 20260507092606 | 2 | 180 | 0.0 | 0.0 | 0.00 | 0.74 | 0.00 | 99 | 1014.4 |
| 20260507091605 | 2 | 202 | 0.0 | 0.0 | 0.00 | 0.79 | 0.00 | 99 | 1014.6 |
| 20260507090604 | 2 | 270 | 0.0 | 0.0 | 0.00 | 0.84 | 0.00 | 99 | 1014.6 |
| 20260507085604 | 2 | 202 | 0.0 | 0.0 | 0.00 | 0.91 | 0.00 | 98 | 1014.6 |
| 20260507084603 | 2 | 225 | 0.0 | 0.0 | 0.00 | 0.97 | 0.00 | 99 | 1014.6 |
| 20260507083717 | 2 | 202 | 0.0 | 0.0 | 0.00 | 1.02 | 0.00 | 97 | 1014.5 |
| 20260507082601 | 3 | 225 | 0.0 | 0.0 | 0.00 | 1.07 | 0.00 | 96 | 1014.5 |
| 20260507081600 | 3 | 225 | 0.0 | 0.0 | 0.00 | 1.09 | 0.00 | 96 | 1014.5 |
| 20260507080559 | 3 | 180 | 0.0 | 0.0 | 0.00 | 1.12 | 0.00 | 96 | 1014.4 |
| 20260507075559 | 3 | 202 | 0.0 | 0.0 | 0.00 | 1.12 | 0.00 | 95 | 1014.5 |
| 20260507074714 | 3 | 270 | 0.0 | 0.0 | 0.00 | 1.12 | 0.00 | 93 | 1014.5 |
| 20260507073557 | 3 | 202 | 0.0 | 0.0 | 0.00 | 1.12 | 0.00 | 93 | 1014.6 |
| 20260507072556 | 4 | 225 | 0.0 | 0.0 | 0.00 | 1.12 | 0.00 | 92 | 1014.7 |
| 20260507071556 | 4 | 180 | 0.0 | 0.0 | 0.00 | 1.12 | 0.00 | 90 | 1014.7 |
| 20260507070555 | 5 | 202 | 0.0 | 0.0 | 0.00 | 1.12 | 0.00 | 89 | 1014.7 |
| 20260507065555 | 5 | 225 | 0.0 | 0.0 | 0.00 | 1.12 | 0.00 | 87 | 1014.8 |
| 20260507064555 | 5 | 202 | 0.0 | 0.0 | 0.00 | 1.14 | 0.00 | 86 | 1014.8 |
| 20260507063554 | 6 | 225 | 0.0 | 0.0 | 0.00 | 1.17 | 0.00 | 85 | 1014.6 |
| 20260507062708 | 6 | 225 | 0.0 | 0.0 | 0.00 | 1.17 | 0.00 | 84 | 1014.7 |
| 20260507061708 | 6 | 247 | 0.0 | 0.0 | 0.00 | 1.19 | 0.00 | 83 | 1014.7 |
| 20260507060553 | 7 | 247 | 0.0 | 0.0 | 0.00 | 1.22 | 0.00 | 79 | 1014.8 |
| 20260507055552 | 7 | 225 | 0.0 | 0.0 | 0.00 | 1.24 | 0.00 | 78 | 1014.9 |
| 20260507054552 | 7 | 225 | 0.0 | 0.0 | 0.00 | 1.24 | 0.00 | 76 | 1015.0 |
| 20260507053551 | 7 | 225 | 0.0 | 0.0 | 0.00 | 1.27 | 0.00 | 76 | 1015.2 |
| 20260507052551 | 7 | 270 | 0.0 | 3.2 | 0.00 | 1.27 | 0.00 | 75 | 1015.4 |
| 20260507051551 | 7 | 292 | 0.0 | 3.2 | 0.00 | 1.32 | 0.00 | 74 | 1015.5 |
| 20260507050551 | 7 | 292 | 1.6 | 3.2 | 0.00 | 1.32 | 0.00 | 75 | 1015.5 |
| 20260507045704 | 7 | 337 | 0.0 | 0.0 | 0.00 | 1.35 | 0.00 | 74 | 1015.5 |
| 20260507044548 | 7 | 247 | 0.0 | 0.0 | 0.00 | 1.35 | 0.00 | 76 | 1015.3 |
| 20260507043549 | 7 | 270 | 0.0 | 0.0 | 0.00 | 1.35 | 0.00 | 75 | 1015.3 |
| 20260507042547 | 8 | 270 | 0.0 | 0.0 | 0.00 | 1.35 | 0.00 | 76 | 1015.4 |
| 20260507041547 | 8 | 225 | 0.0 | 0.0 | 0.00 | 1.35 | 0.00 | 76 | 1015.3 |
| 20260507040547 | 8 | 247 | 0.0 | 0.0 | 0.00 | 1.35 | 0.00 | 74 | 1015.3 |
| 20260507035545 | 8 | 247 | 0.0 | 0.0 | 0.00 | 1.35 | 1.35 | 78 | 1015.1 |
| 20260507034545 | 8 | 247 | 0.0 | 0.0 | 0.00 | 1.35 | 1.35 | 76 | 1015.2 |
| 20260507033545 | 8 | 225 | 0.0 | 0.0 | 0.00 | 1.35 | 1.35 | 73 | 1015.2 |
| 20260507032544 | 8 | 202 | 0.0 | 0.0 | 0.00 | 1.35 | 1.35 | 73 | 1014.9 |
| 20260507031544 | 8 | 225 | 0.0 | 0.0 | 0.00 | 1.35 | 1.35 | 72 | 1015.0 |
| 20260507030659 | 8 | 45 | 0.0 | 0.0 | 0.00 | 1.35 | 1.35 | 72 | 1014.8 |
| 20260507025543 | 8 | 180 | 0.0 | 0.0 | 0.00 | 1.35 | 1.35 | 72 | 1014.9 |
| 20260507024543 | 8 | 135 | 0.0 | 0.0 | 0.00 | 1.35 | 1.35 | 71 | 1014.8 |
| 20260507023657 | 8 | 22 | 0.0 | 0.0 | 0.00 | 1.35 | 1.35 | 72 | 1014.7 |
| 20260507022541 | 9 | 270 | 0.0 | 0.0 | 0.00 | 1.35 | 1.35 | 71 | 1014.8 |
| 20260507021541 | 9 | 112 | 0.0 | 0.0 | 0.00 | 1.35 | 1.35 | 71 | 1014.5 |
| 20260507020540 | 9 | 45 | 0.0 | 1.6 | 0.00 | 1.35 | 1.35 | 72 | 1014.5 |
| 20260507015539 | 9 | 90 | 0.0 | 1.6 | 0.00 | 1.35 | 1.35 | 71 | 1014.2 |
| 20260507014539 | 9 | 67 | 0.0 | 3.2 | 0.00 | 1.35 | 1.35 | 71 | 1014.1 |
| 20260507013538 | 10 | 90 | 0.0 | 0.0 | 0.00 | 1.35 | 1.35 | 71 | 1014.0 |
| 20260507012538 | 10 | 67 | 0.0 | 3.2 | 0.00 | 1.35 | 1.35 | 71 | 1013.9 |
| 20260507011537 | 10 | 315 | 0.0 | 3.2 | 0.00 | 1.35 | 1.35 | 71 | 1013.8 |
| 20260507010536 | 10 | 270 | 0.0 | 1.6 | 0.00 | 1.35 | 1.35 | 72 | 1013.9 |
| 20260507005536 | 10 | 45 | 0.0 | 1.6 | 0.00 | 1.35 | 1.35 | 71 | 1014.0 |
| 20260507004535 | 10 | 112 | 0.0 | 0.0 | 0.00 | 1.35 | 1.35 | 72 | 1014.3 |
| 20260507003534 | 10 | 270 | 0.0 | 0.0 | 0.00 | 1.35 | 1.35 | 71 | 1014.4 |
| 20260507002533 | 10 | 247 | 0.0 | 4.8 | 0.00 | 1.35 | 1.35 | 68 | 1014.2 |
| 20260507001533 | 10 | 315 | 0.0 | 3.2 | 0.00 | 1.35 | 1.35 | 68 | 1014.2 |
| 20260507000533 | 11 | 112 | 0.0 | 3.2 | 0.00 | 1.35 | 1.35 | 69 | 1014.0 |
| 20260506235647 | 11 | 225 | 1.6 | 4.8 | 0.00 | 1.35 | 1.35 | 69 | 1014.1 |
| 20260506234532 | 11 | 270 | 0.0 | 6.4 | 0.00 | 1.35 | 1.35 | 70 | 1014.1 |
| 20260506233532 | 11 | 45 | 1.6 | 6.4 | 0.00 | 1.35 | 1.35 | 70 | 1013.6 |
| 20260506232532 | 12 | 337 | 1.6 | 3.2 | 0.00 | 1.35 | 1.35 | 73 | 1013.5 |